This is the latest recevied weather packets stored in our database for station/object KO4DYK. If no packets are shown the sender has not sent any weather packets the latest 10 day(s).
| Time | Temp. | Humidity | Pressure | Rain* | Wind** | Luminosity | Snow |
|---|---|---|---|---|---|---|---|
| 1788306941 | 31.11° C | 75% | 1017.6 hPa | 0 mm | - | 17 W/m² | - |
| 1788306637 | 31.11° C | 73% | 1017.6 hPa | 0 mm | - | 20 W/m² | - |
| 1788306336 | 31.11° C | 73% | 1017.8 hPa | 0 mm | - | 23 W/m² | - |
| 1788306031 | 31.11° C | 72% | 1017.7 hPa | 0 mm | - | 26 W/m² | - |
| 1788305731 | 31.67° C | 71% | 1017.7 hPa | 0 mm | - | 29 W/m² | - |
| 1788305427 | 32.22° C | 69% | 1017.9 hPa | 0 mm | - | 31 W/m² | - |
| 1788305122 | 32.22° C | 69% | 1017.9 hPa | 0 mm | - | 34 W/m² | - |
| 1788304817 | 32.78° C | 67% | 1017.7 hPa | 0 mm | - | 35 W/m² | - |
| 1788304514 | 33.33° C | 66% | 1017.7 hPa | 0 mm | - | 36 W/m² | - |
| 1788304210 | 33.33° C | 64% | 1017.8 hPa | 0 mm | - | 36 W/m² | - |
| 1788303910 | 33.33° C | 62% | 1017.9 hPa | 0 mm | - | 36 W/m² | - |
| 1788303605 | 33.89° C | 61% | 1017.9 hPa | 0 mm | - | 36 W/m² | - |
| 1788303300 | 34.44° C | 61% | 1017.7 hPa | 0 mm | - | 35 W/m² | - |
| 1788303000 | 35° C | 54% | 1017.9 hPa | 0 mm | - | 35 W/m² | - |
| 1788302695 | 35° C | 53% | 1017.8 hPa | 0 mm | - | 37 W/m² | - |
| 1788302392 | 35.56° C | 52% | 1017.8 hPa | 0 mm | - | 40 W/m² | - |
| 1788302087 | 35.56° C | 51% | 1017.7 hPa | 0 mm | - | 42 W/m² | - |
| 1788301782 | 36.67° C | 50% | 1017.7 hPa | 0 mm | - | 60 W/m² | - |
| 1788301479 | 36.11° C | 49% | 1017.8 hPa | 0 mm | - | 69 W/m² | - |
| 1788301175 | 36.67° C | 48% | 1017.7 hPa | 0 mm | - | 90 W/m² | - |
| 1788300871 | 37.78° C | 47% | 1017.8 hPa | 0 mm | - | 112 W/m² | - |
| 1788300570 | 38.33° C | 45% | 1017.6 hPa | 0 mm | - | 280 W/m² | - |
| 1788300270 | 38.33° C | 44% | 1017.7 hPa | 0 mm | - | 324 W/m² | - |
| 1788299968 | 38.33° C | 44% | 1017.7 hPa | 0 mm | - | 356 W/m² | - |
| 1788299367 | 37.78° C | 45% | 1017.6 hPa | 0 mm | - | 355 W/m² | - |
* Rain latest hour (hover to see other rain measurements)
** Current wind speed in m/s (hover to see current wind gust speed)